GW0795 Weather Reports


Display with metric or nautical units.
time (UTC)temp
F
wind
direction
speed
MPH
gust
MPH
rain 1hr
in
rain 24hr
in
rain mn
in
humidity
%
barometer
mb
20260505111518 53 192 1.0 3.0 0.00 0.00 0.00 85 1014.2
20260505111006 53 200 1.0 4.0 0.00 0.00 0.00 85 1014.2
20260505110507 53 224 1.0 4.0 0.00 0.00 0.00 85 1014.2
20260505102006 53 211 0.0 8.0 0.00 0.00 0.00 86 1013.9
20260505101519 53 213 3.0 8.0 0.00 0.00 0.00 86 1013.9
20260505101008 53 223 1.0 8.0 0.00 0.00 0.00 86 1013.8
20260505100507 53 222 1.0 8.0 0.00 0.00 0.00 86 1013.8
20260505100021 53 184 1.0 5.0 0.00 0.00 0.00 86 1013.8
20260505095507 53 213 1.0 7.0 0.00 0.00 0.00 86 1013.8
20260505095007 53 206 2.0 7.0 0.00 0.00 0.00 86 1013.8
20260505094520 53 186 1.0 9.0 0.00 0.00 0.00 86 1013.8
20260505094008 53 204 1.0 9.0 0.00 0.00 0.00 86 1013.8
20260505093507 53 186 2.0 9.0 0.00 0.00 0.00 87 1013.7
20260505093026 53 221 3.0 6.0 0.00 0.00 0.00 87 1013.7
20260505092507 53 246 1.0 6.0 0.00 0.00 0.00 87 1013.7
20260505092008 53 244 2.0 7.0 0.00 0.00 0.00 87 1013.7
20260505091503 53 219 0.0 7.0 0.00 0.00 0.00 87 1013.7
20260505091004 53 227 2.0 4.0 0.00 0.00 0.00 87 1013.6
20260505090504 53 222 0.0 4.0 0.00 0.00 0.00 87 1013.6
20260505090004 53 192 1.0 7.0 0.00 0.00 0.00 87 1013.5
20260505085504 53 194 2.0 7.0 0.00 0.00 0.00 87 1013.5
20260505085003 53 207 2.0 4.0 0.00 0.00 0.00 87 1013.5
20260505084508 53 181 0.0 5.0 0.00 0.00 0.00 87 1013.5
20260505084008 53 216 2.0 5.0 0.00 0.00 0.00 87 1013.4
20260505083507 53 180 0.0 4.0 0.00 0.00 0.00 87 1013.4
20260505083006 53 169 1.0 6.0 0.00 0.00 0.00 87 1013.4
20260505082500 53 197 0.0 6.0 0.00 0.00 0.00 88 1013.4
20260505082003 53 200 0.0 2.0 0.00 0.00 0.00 88 1013.4
20260505081505 53 181 0.0 2.0 0.00 0.00 0.00 88 1013.4
20260505081007 53 180 0.0 2.0 0.00 0.00 0.00 88 1013.3
20260505080502 53 191 0.0 3.0 0.00 0.00 0.00 88 1013.3
20260505080004 53 213 0.0 3.0 0.00 0.00 0.00 88 1013.3
20260505075502 53 207 0.0 2.0 0.00 0.00 0.00 88 1013.3
20260505075003 53 213 0.0 2.0 0.00 0.00 0.00 87 1013.2
20260505074508 53 213 0.0 3.0 0.00 0.00 0.00 87 1013.2
20260505074003 53 218 0.0 3.0 0.00 0.00 0.00 87 1013.1
20260505073504 53 161 0.0 1.0 0.00 0.00 0.00 87 1013.1
20260505073012 53 190 0.0 2.0 0.00 0.00 0.00 87 1013.0
20260505072507 53 194 1.0 2.0 0.00 0.00 0.00 87 1012.9
20260505072006 53 210 0.0 2.0 0.00 0.00 0.00 86 1012.9
20260505071503 53 198 1.0 4.0 0.00 0.00 0.00 86 1012.8
20260505071003 53 202 1.0 4.0 0.00 0.00 0.00 86 1012.8
20260505070503 53 221 0.0 2.0 0.00 0.00 0.00 86 1012.7
20260505070006 53 221 0.0 2.0 0.00 0.00 0.00 86 1012.7
20260505065502 53 221 0.0 3.0 0.00 0.00 0.00 86 1012.7
20260505065005 53 207 1.0 4.0 0.00 0.00 0.00 86 1012.6
20260505064509 53 198 0.0 4.0 0.00 0.00 0.00 86 1012.6
20260505064002 54 215 0.0 4.0 0.00 0.00 0.00 86 1012.6
20260505063504 54 205 1.0 5.0 0.00 0.00 0.00 85 1012.6
20260505063007 54 198 1.0 5.0 0.00 0.00 0.00 85 1012.5
20260505062505 54 184 1.0 5.0 0.00 0.00 0.00 85 1012.5
20260505062006 54 192 0.0 2.0 0.00 0.00 0.00 85 1012.4
20260505061515 54 186 0.0 5.0 0.00 0.00 0.00 85 1012.3
20260505061006 54 247 0.0 5.0 0.00 0.00 0.00 85 1012.2
20260505060507 54 193 1.0 4.0 0.00 0.00 0.00 85 1012.2
20260505060011 54 212 2.0 3.0 0.00 0.00 0.00 85 1012.2
20260505055503 54 195 1.0 2.0 0.00 0.00 0.00 84 1012.2
20260505055003 54 202 0.0 3.0 0.00 0.00 0.00 84 1012.2
20260505054503 54 207 0.0 5.0 0.00 0.00 0.00 84 1012.1
20260505054004 55 225 1.0 8.0 0.00 0.00 0.00 83 1012.0
20260505053503 55 209 4.0 8.0 0.00 0.00 0.00 83 1012.1
20260505053008 55 167 2.0 7.0 0.00 0.00 0.00 83 1012.0
20260505052503 55 211 2.0 7.0 0.00 0.00 0.00 83 1012.0
20260505052003 55 191 2.0 5.0 0.00 0.00 0.00 83 1012.0
20260505051514 55 198 2.0 5.0 0.00 0.00 0.00 82 1011.9
20260505051007 55 216 2.0 5.0 0.00 0.00 0.00 82 1012.0
20260505050510 55 208 0.0 5.0 0.00 0.00 0.00 82 1011.9
20260505041508 59 225 0.0 6.0 0.00 0.00 0.00 74 1011.0
20260505041005 60 180 1.0 4.0 0.00 0.00 0.00 74 1011.0
20260505040506 60 203 1.0 4.0 0.00 0.00 0.00 73 1011.0
20260505040014 60 220 0.0 2.0 0.00 0.00 0.00 73 1010.8
20260505035508 61 207 0.0 2.0 0.00 0.00 0.00 72 1010.7
20260505035008 61 203 1.0 2.0 0.00 0.00 0.00 72 1010.7
20260505034518 62 200 1.0 2.0 0.00 0.00 0.00 71 1010.6
20260505034010 62 209 0.0 2.0 0.00 0.00 0.00 70 1010.6
20260505033508 62 211 0.0 2.0 0.00 0.00 0.00 71 1010.4
20260505033013 63 183 0.0 2.0 0.00 0.00 0.00 70 1010.2
20260505032502 63 173 0.0 2.0 0.00 0.00 0.00 69 1010.2
20260505032002 64 158 0.0 2.0 0.00 0.00 0.00 68 1010.1
20260505031507 64 158 0.0 2.0 0.00 0.00 0.00 67 1010.1
20260505031008 65 158 0.0 2.0 0.00 0.00 0.00 66 1010.1
20260505030508 65 158 0.0 2.0 0.00 0.00 0.00 65 1010.0
20260505030011 66 138 0.0 1.0 0.00 0.00 0.00 64 1010.0
20260505025504 66 138 0.0 2.0 0.00 0.00 0.00 64 1010.0
20260505025006 67 221 0.0 2.0 0.00 0.00 0.00 63 1009.9
20260505024514 67 221 0.0 1.0 0.00 0.00 0.00 63 1009.9
20260505024008 67 155 0.0 1.0 0.00 0.00 0.00 62 1009.9
20260505023508 67 155 0.0 2.0 0.00 0.00 0.00 61 1009.9
20260505023018 68 195 0.0 2.0 0.00 0.00 0.00 60 1009.8
20260505022510 69 212 1.0 2.0 0.00 0.00 0.00 59 1009.8
20260505022009 69 213 0.0 2.0 0.00 0.00 0.00 57 1009.8
20260505021506 70 213 0.0 2.0 0.00 0.00 0.00 57 1009.8
20260505021004 70 213 0.0 2.0 0.00 0.00 0.00 56 1009.8
20260505020506 70 206 0.0 3.0 0.00 0.00 0.00 56 1009.8
20260505020008 70 206 0.0 3.0 0.00 0.00 0.00 56 1009.8
20260505015506 71 352 0.0 2.0 0.00 0.00 0.00 56 1009.8
20260505015005 71 330 0.0 2.0 0.00 0.00 0.00 54 1009.8
20260505014515 71 205 0.0 2.0 0.00 0.00 0.00 55 1009.9
20260505014007 72 273 0.0 2.0 0.00 0.00 0.00 55 1009.8
20260505013507 73 290 0.0 3.0 0.00 0.00 0.00 54 1009.8
20260505013017 73 200 0.0 3.0 0.00 0.00 0.00 54 1009.8
20260505012506 73 132 1.0 3.0 0.00 0.00 0.00 54 1009.7
20260505012011 73 181 0.0 6.0 0.00 0.00 0.00 54 1009.7
20260505011525 74 305 1.0 6.0 0.00 0.00 0.00 52 1009.7
20260505011010 74 127 0.0 3.0 0.00 0.00 0.00 52 1009.7
20260505010507 75 127 0.0 3.0 0.00 0.00 0.00 52 1009.7
20260505010008 75 190 1.0 2.0 0.00 0.00 0.00 52 1009.8
20260505005504 75 194 0.0 3.0 0.00 0.00 0.00 51 1009.8
20260505005004 75 207 0.0 5.0 0.00 0.00 0.00 51 1009.8
20260505004523 74 242 1.0 5.0 0.00 0.00 0.00 51 1009.8
20260505004007 75 169 0.0 3.0 0.00 0.00 0.00 51 1009.8
20260505003510 75 116 1.0 3.0 0.00 0.00 0.00 49 1009.8
20260505003017 75 291 1.0 3.0 0.00 0.00 0.00 50 1009.8
20260505002508 75 324 0.0 3.0 0.00 0.00 0.00 52 1009.8
20260505002008 75 114 0.0 5.0 0.00 0.00 0.00 51 1009.8
20260505001523 75 228 1.0 5.0 0.00 0.00 0.00 51 1009.8
20260505001013 75 306 1.0 5.0 0.00 0.00 0.00 49 1009.8
20260505000508 75 192 2.0 5.0 0.00 0.00 0.00 50 1009.8
20260505000025 75 5 1.0 4.0 0.00 0.00 0.00 51 1009.8
20260504235508 75 183 2.0 4.0 0.00 0.00 0.00 50 1009.8
20260504235008 75 311 1.0 3.0 0.00 0.00 0.00 51 1009.8
20260504234517 75 213 1.0 3.0 0.00 0.00 0.00 51 1009.8
20260504234005 75 198 0.0 4.0 0.00 0.00 0.00 51 1009.8
20260504233509 75 197 1.0 4.0 0.00 0.00 0.00 51 1009.8
20260504233016 75 183 1.0 5.0 0.00 0.00 0.00 50 1009.7
20260504232505 76 222 2.0 5.0 0.00 0.00 0.00 49 1009.8
20260504232008 76 201 2.0 6.0 0.00 0.00 0.00 49 1009.7
20260504231536 75 200 2.0 6.0 0.00 0.00 0.00 49 1009.8
20260504231007 77 189 2.0 5.0 0.00 0.00 0.00 48 1009.8
20260504230507 76 148 0.0 3.0 0.00 0.00 0.00 48 1009.8
20260504230025 76 337 1.0 6.0 0.00 0.00 0.00 49 1009.9
20260504225513 76 186 2.0 6.0 0.00 0.00 0.00 46 1010.0
20260504225009 76 193 1.0 5.0 0.00 0.00 0.00 47 1010.1
20260504224528 75 194 1.0 7.0 0.00 0.00 0.00 46 1010.3
20260504224007 76 197 3.0 7.0 0.00 0.00 0.00 44 1010.4
20260504223512 76 178 1.0 5.0 0.00 0.00 0.00 44 1010.6
20260504223014 75 140 2.0 5.0 0.00 0.00 0.00 46 1010.5
20260504222507 75 192 1.0 5.0 0.00 0.00 0.00 44 1010.6
20260504222006 76 217 2.0 7.0 0.00 0.00 0.00 47 1010.6
20260504221517 76 175 2.0 7.0 0.00 0.00 0.00 46 1010.7
20260504221008 74 131 2.0 6.0 0.00 0.00 0.00 45 1010.7
20260504220508 75 5 2.0 6.0 0.00 0.00 0.00 47 1010.8
20260504220024 75 182 2.0 6.0 0.00 0.00 0.00 45 1010.8
20260504215507 76 168 1.0 6.0 0.00 0.00 0.00 48 1010.8
20260504215012 76 169 2.0 5.0 0.00 0.00 0.00 45 1010.9
20260504214534 75 233 1.0 7.0 0.00 0.00 0.00 46 1010.9
20260504214012 75 319 3.0 7.0 0.00 0.00 0.00 44 1010.9
20260504213514 75 19 1.0 5.0 0.00 0.00 0.00 46 1010.8
20260504213030 76 114 1.0 4.0 0.00 0.00 0.00 47 1010.9
20260504212511 75 234 1.0 4.0 0.00 0.00 0.00 50 1010.9
20260504212013 75 193 2.0 4.0 0.00 0.00 0.00 48 1011.0
20260504211514 75 125 2.0 5.0 0.00 0.00 0.00 49 1011.1
20260504211007 74 192 2.0 5.0 0.00 0.00 0.00 51 1011.2
20260504210507 74 186 2.0 5.0 0.00 0.00 0.00 51 1011.2
20260504210007 74 109 1.0 3.0 0.00 0.00 0.00 52 1011.2
20260504205504 75 202 1.0 5.0 0.00 0.00 0.00 51 1011.2
20260504205003 73 59 1.0 7.0 0.00 0.00 0.00 53 1011.2
20260504204505 72 130 2.0 6.0 0.00 0.00 0.00 51 1011.3
20260504204003 71 212 2.0 6.0 0.00 0.00 0.00 52 1011.3
20260504203503 73 181 1.0 5.0 0.00 0.00 0.00 52 1011.3
20260504203012 73 194 0.0 5.0 0.00 0.00 0.00 53 1011.3
20260504202503 72 261 1.0 3.0 0.00 0.00 0.00 53 1011.2
20260504202007 72 207 1.0 5.0 0.00 0.00 0.00 54 1011.2
20260504201503 71 205 1.0 6.0 0.00 0.00 0.00 54 1011.1
20260504201007 70 109 1.0 7.0 0.00 0.00 0.00 56 1011.2
20260504200503 70 205 3.0 7.0 0.00 0.00 0.00 54 1011.3
20260504200008 70 194 2.0 8.0 0.00 0.00 0.00 57 1011.3
20260504195506 70 217 4.0 8.0 0.00 0.00 0.00 54 1011.4
20260504195002 70 194 2.0 7.0 0.00 0.00 0.00 54 1011.4
20260504194508 70 214 2.0 6.0 0.00 0.00 0.00 56 1011.4
20260504194004 70 254 2.0 6.0 0.00 0.00 0.00 56 1011.4
20260504193504 69 223 2.0 7.0 0.00 0.00 0.00 55 1011.4
20260504193017 69 239 3.0 8.0 0.00 0.00 0.00 54 1011.4
20260504192503 70 168 2.0 8.0 0.00 0.00 0.00 56 1011.4
20260504192012 70 216 2.0 7.0 0.00 0.00 0.00 53 1011.6
20260504191511 70 325 2.0 5.0 0.00 0.00 0.00 54 1011.6
20260504191006 70 178 2.0 6.0 0.00 0.00 0.00 56 1011.6
20260504190507 69 221 3.0 9.0 0.00 0.00 0.00 54 1011.5
20260504190003 69 278 1.0 9.0 0.00 0.00 0.00 56 1011.6
20260504185500 69 215 2.0 9.0 0.00 0.00 0.00 58 1011.6
20260504185002 69 228 2.0 5.0 0.00 0.00 0.00 57 1011.7
20260504184505 69 178 1.0 5.0 0.00 0.00 0.00 60 1011.7
20260504184004 68 244 2.0 6.0 0.00 0.00 0.00 59 1011.8
20260504183502 68 194 1.0 6.0 0.00 0.00 0.00 61 1011.7
20260504183005 67 208 1.0 7.0 0.00 0.00 0.00 59 1011.7
20260504182504 67 165 3.0 7.0 0.00 0.00 0.00 60 1011.8
20260504182008 67 140 2.0 5.0 0.00 0.00 0.00 59 1011.8
20260504181510 68 223 1.0 5.0 0.00 0.00 0.00 60 1011.8
20260504181004 67 194 2.0 6.0 0.00 0.00 0.00 61 1011.8
20260504180509 67 130 3.0 6.0 0.00 0.00 0.00 58 1011.8
20260504180014 66 187 1.0 4.0 0.00 0.00 0.00 60 1011.9
20260504175507 67 256 1.0 8.0 0.00 0.00 0.00 59 1011.9
20260504175007 65 223 1.0 8.0 0.00 0.00 0.00 63 1011.8
20260504174504 64 200 3.0 7.0 0.00 0.00 0.00 63 1011.8
20260504174002 64 219 1.0 7.0 0.00 0.00 0.00 64 1011.8
20260504173504 65 208 2.0 7.0 0.00 0.00 0.00 61 1011.8
20260504173002 65 175 1.0 6.0 0.00 0.00 0.00 63 1011.7
20260504172504 64 203 1.0 8.0 0.00 0.00 0.00 65 1011.6
20260504172006 63 169 3.0 8.0 0.00 0.00 0.00 66 1011.6
20260504171528 63 150 2.0 8.0 0.00 0.00 0.00 64 1011.7
20260504171007 63 182 3.0 9.0 0.00 0.00 0.00 64 1011.6
20260504170506 62 144 3.0 9.0 0.00 0.00 0.00 64 1011.6
20260504151004 59 163 1.0 5.0 0.00 0.00 0.00 70 1010.9
20260504150504 59 178 2.0 4.0 0.00 0.00 0.00 71 1010.9
20260504141011 55 27 0.0 0.0 0.00 0.00 0.00 80 1010.5
20260504140508 54 27 0.0 0.0 0.00 0.00 0.00 81 1010.6
20260504130511 52 62 0.0 0.0 0.00 0.00 0.00 82 1009.9